Location: Avon
(37.7514°N, 90.2235°W)
Time: 22:02:34
(UTC+00:00)

Altair - Visible Passes

Search period start: 08 November 2024 00:00
Search period end: 18 November 2024 00:00
Orbit: 1501 x 1682 km, 47.2° (Epoch: 08 November)

Date Brightness Start Highest point End Pass type
(mag) Time Alt. Az. Time Alt. Az. Time Alt. Az.
08 Nov 8.6 01:30:24 10° WNW 01:38:41 37° SW 01:46:00 14° S visible
09 Nov 8.5 01:05:06 10° WNW 01:13:33 40° SW 01:22:16 10° SSE visible
10 Nov 8.4 00:39:48 10° WNW 00:48:24 44° SW 00:57:17 10° SSE visible
11 Nov 8.3 00:14:31 10° WNW 00:23:15 48° SW 00:32:16 10° SSE visible
11 Nov 8.3 23:49:15 10° WNW 23:58:06 52° SW 00:07:13 10° SSE visible
12 Nov 9.8 01:58:36 10° WSW 02:01:18 11° WSW 02:04:02 10° SW visible
12 Nov 8.2 23:24:00 10° WNW 23:32:57 57° SW 23:42:08 10° SSE visible
13 Nov 9.8 01:32:13 10° W 01:36:13 13° WSW 01:40:16 10° SSW visible
13 Nov 8.1 22:58:46 10° WNW 23:07:47 61° SW 23:17:02 10° SE visible
14 Nov 9.8 01:06:16 10° W 01:11:08 15° SW 01:16:06 10° SSW visible
15 Nov 9.8 00:40:29 10° W 00:46:03 18° SW 00:51:43 10° SSW visible
16 Nov 9.8 00:14:50 10° W 00:20:58 20° SW 00:27:13 10° SSW visible
16 Nov 9.8 23:49:17 10° W 23:55:52 22° SW 00:02:35 10° S visible
17 Nov 9.8 23:23:47 10° WNW 23:30:46 25° SW 23:37:54 10° S visible
